Location: D�derode
(51.8092°N, 10.1065°E)
Time: 20:35:32
(UTC+00:00)

COSMO-SKYMED 1 - Pass Details

Date: 01 December 2020
Orbit: 621 x 623 km, 97.9° (Epoch: 25 January)

Event Time Altitude Azimuth Distance (km) Brightness Sun altitude
Exits shadow 17:23:47 37° 39° (NE) 985 3.2 -19.3°
Maximum altitude 17:25:18 59° 101° (E) 728 2.5 -19.6°
Drops below altitude 10° 17:29:35 10° 181° (S) 1,991 5.3 -20.2°
Sets 17:31:47 0° 185° (S) 2,892 6.2 -20.5°
